Location: Hylvaty SDH
(49.9612°N, 16.4057°E)
Time: 03:26:51
(UTC+01:00)

Tiros 1 despin weight - Pass Details

Date: 19 January 2021
Orbit: 593 x 642 km, 48.2° (Epoch: 24 February)

Event Time Altitude Azimuth Distance (km) Brightness Sun altitude
Rises 18:16:16 0° 258° (WSW) 2,854 ? -17.0°
Reaches altitude 10° 18:18:35 10° 256° (WSW) 1,944 ? -17.4°
Maximum altitude 18:23:00 69° 175° (S) 641 ? -18.1°
Enters shadow 18:24:34 38° 103° (ESE) 911 ? -18.4°
